Lid_Strength_Index
5 2 0 1 0 0 0 1 1 1 1 1 1 1 1 1 1 1 1 1 1 0 -0 -0 -0 -0 -0 -0 0 0 0 0 0 -0 -0 -0 -1 -1 -2 -2 -2 0 -2
4 2 1 1 1 1 1 1 1 1 1 1 1 1 1 1 1 1 1 1 1 1 0 0 1 1 1 1 1 1 1 1 1 1 1 1 1 1 -0 -1 -2 -1 -1
4 2 2 2 2 2 2 2 2 2 2 2 2 2 2 2 2 2 2 2 1 1 1 1 1 1 2 2 2 2 2 1 2 2 2 5 5 1 1 -0 -1 -2 -2
4 3 3 3 2 2 3 3 3 3 2 2 3 3 3 3 3 3 2 2 2 2 2 1 2 2 2 2 2 2 2 2 3 3 5 6 5 2 1 0 -0 -1 -2
5 3 4 3 3 3 3 3 3 3 3 3 3 3 3 3 3 3 3 3 3 2 2 2 2 3 3 3 3 3 3 3 4 5 6 6 6 4 1 1 0 0 -0
5 5 4 4 4 4 4 4 4 4 4 4 4 4 4 4 4 4 4 4 4 3 3 3 3 3 4 4 4 4 4 4 4 7 7 6 6 3 1 0 0 0 0
7 6 6 5 5 5 5 5 5 5 5 5 5 5 5 5 5 5 5 5 4 4 4 4 4 4 4 4 4 4 4 4 7 8 7 7 6 2 1 0 0 0 0
7 6 7 6 6 6 7 7 6 6 6 6 6 5 6 6 6 6 6 6 5 5 5 5 5 5 5 5 5 5 5 5 7 8 7 7 4 2 1 0 1 1 1
8 8 7 7 7 7 8 8 8 8 7 7 7 7 7 7 7 7 7 7 6 5 5 5 5 5 5 5 6 6 6 6 8 7 7 7 4 1 0 1 1 2 1
9 8 8 8 8 8 8 9 9 9 8 8 8 8 8 8 8 8 8 7 6 6 6 6 6 6 6 6 7 7 6 6 8 7 7 6 2 -1 -1 -1 -0 0 2
9 9 9 9 9 8 9 9 8 9 8 8 9 9 9 10 10 10 9 8 7 7 7 7 6 6 7 8 7 7 7 9 8 7 5 3 1 -1 -2 -1 -1 -1 -0
10 10 10 10 10 9 9 9 10 9 10 10 11 11 11 11 11 10 10 9 9 8 8 8 7 8 9 11 10 8 10 9 8 6 5 2 -1 -3 -3 -3 -3 -2 -2
10 10 10 10 10 10 10 10 11 11 11 11 12 12 12 12 12 12 12 12 12 11 12 11 12 11 11 11 10 10 10 9 7 5 4 1 -1 -2 -3 -3 -3 -2 -2
11 10 10 10 10 10 11 11 12 12 12 12 12 12 13 13 13 13 13 13 13 13 13 13 12 12 11 11 11 11 10 8 6 5 4 1 0 -1 -2 -3 -3 -2 -2
11 10 11 11 11 10 11 12 12 13 13 13 13 12 13 14 14 14 14 14 14 13 13 13 12 12 11 11 11 10 9 7 7 5 3 2 1 -0 -1 -2 -2 -3 -2
11 11 11 11 11 11 11 12 13 13 13 13 13 13 13 13 14 15 14 14 14 14 13 13 12 12 12 11 11 9 8 7 6 5 3 3 1 0 -0 -1 -1 -2 -2
11 11 11 11 11 12 12 12 13 13 13 14 14 13 14 13 15 15 15 15 15 14 13 12 12 12 12 12 11 9 8 7 6 4 3 3 2 1 1 -0 -0 -1 -1
12 12 11 11 12 12 12 12 13 13 14 14 14 14 14 14 14 16 15 16 15 14 13 13 12 13 13 13 11 9 8 7 5 3 4 3 3 4 3 2 1 0 -0
12 12 12 12 12 12 12 12 13 13 14 14 14 15 15 14 14 16 16 16 15 15 14 13 12 13 14 13 11 8 8 7 5 5 5 4 5 5 5 4 3 3 2
12 12 12 12 12 12 12 13 13 14 14 14 15 15 15 15 15 16 16 16 15 15 14 13 13 13 14 14 11 9 8 7 7 7 7 6 7 6 6 7 7 6 4
13 13 13 13 13 13 14 14 14 15 14 14 15 15 15 15 15 16 17 16 16 15 14 13 13 14 15 14 12 11 9 7 8 8 8 8 8 7 7 7 7 7 7
13 13 13 13 13 13 13 13 14 15 15 15 15 15 16 16 16 16 17 17 16 15 14 13 14 15 14 13 13 12 13 10 9 9 9 9 9 8 8 8 7 8 9
14 13 13 13 13 14 14 14 15 15 16 16 16 17 17 16 16 17 17 17 16 15 15 14 14 15 15 12 11 11 14 14 12 11 10 10 10 9 9 9 8 10 12
14 13 13 13 13 14 14 15 16 16 17 17 17 17 17 17 17 17 17 16 16 15 14 14 13 15 14 14 11 9 9 11 15 15 12 11 11 10 9 10 11 13 13
14 13 13 14 14 15 15 15 15 16 16 17 17 17 17 17 17 17 17 16 16 15 14 14 14 15 14 13 12 11 10 11 12 14 15 14 11 10 9 11 12 13 14
14 14 14 14 15 15 15 16 16 16 17 18 18 18 18 18 18 18 17 17 16 15 14 14 14 14 14 13 12 11 11 12 13 14 15 14 14 11 10 11 12 13 13